Regional Weather Roundup
Issued by NWS Charleston, SC

Current Version | Previous Version | Graphics & Text | Print | Product List | Glossary On
Versions: 1 2 3 4 5 6 7 8 9 10 11 12 13 14 15 16 17 18 19 20 21 22 23 24 25 26 27 28 29 30 31 32 33 34 35 36 37 38 39 40 41 42 43 44 45 46 47 48 49 50
000 ASUS42 KCHS 260627 RWRCHS Regional Weather Roundup National Weather Service Charleston SC 200 AM EDT THU APR 26 2018 NOTE: "fair" indicates few or no clouds below 12,000 feet with no significant weather and/or obstructions to visibility. Not all stations are quality controlled. Use data with caution, especially dewpoint observations. SCZ027-030-031-034>040-042>050-260700- ...Southeast South Carolina... CITY SKY/WX TMP DP RH WIND PRES REMARKS N Charleston FAIR 63 55 75 SW7 29.84S 6HR MIN TEMP: 63; 6HR MAX TEMP: 74; Waterfront Prk N/A 66 57 72 W5 29.69F Mount Pleasant FAIR 64 57 77 CALM 29.83F Johns Island FAIR 61 55 82 W5 29.84S Pinopolis N/A 64 59 82 SW7 29.74F Moncks Corner FAIR 61 55 82 CALM 29.83S Summerville FAIR 55 55 100 CALM 29.85S Beaufort MCAS FAIR 62 56 80 W7 29.85F 6HR MIN TEMP: 60; 6HR MAX TEMP: 72; Beaufort Arpt FAIR 63 55 77 W6 29.85F Hilton Head Is FAIR 63 55 77 VRB5 29.86F Walterboro FAIR 59 54 82 W6 29.85F Allendale FAIR 59 55 88 CALM 29.85S ...Southern Midlands and Pee Dee... CITY SKY/WX TMP DP RH WIND PRES REMARKS Georgetown FAIR 55 55 100 SW3 29.83F Kingstree MOCLDY 59 57 94 CALM 29.83S Orangeburg FAIR 59 54 83 W3 29.84S 6HR MIN TEMP: 59; 6HR MAX TEMP: 71; Barnwell FAIR 57 54 88 CALM 29.85S Aiken FAIR 54 52 94 W3 29.89S Manning FAIR 54 54 100 CALM 29.83R Columbia FAIR 65 54 67 N3 29.83F 6HR MIN TEMP: 62; 6HR MAX TEMP: 73; Sumter CLOUDY 65 56 73 CALM 29.81S 6HR MIN TEMP: 59; 6HR MAX TEMP: 70; Florence CLOUDY 62 58 86 CALM 29.82F 6HR MIN TEMP: 61; 6HR MAX TEMP: 72; Myrtle Beach FAIR 61 58 90 CALM 29.83F N Myrtle Beach FAIR 60 59 96 CALM 29.81F 6HR MIN TEMP: 59; 6HR MAX TEMP: 71; $$ GAZ063-065-086>088-099>101-113>116-118-119-134>141-150-260700- ...Southeast Georgia... CITY SKY/WX TMP DP RH WIND PRES REMARKS Savannah Arpt FAIR 59 54 83 W6 29.87F 6HR MIN TEMP: 59; 6HR MAX TEMP: 73; Hunter AAF FAIR 59 54 83 W6 29.84F 6HR MIN TEMP: 59; 6HR MAX TEMP: 73; Fort Stewart FAIR 58 53 84 W5 29.86F 6HR MIN TEMP: 58; 6HR MAX TEMP: 72; Statesboro FAIR 59 52 78 W3 29.87S Sylvania FAIR 55 55 99 CALM 29.87F Claxton FAIR 56 55 97 CALM 29.88F ...CSRA, Central and far Southeast Georgia... CITY SKY/WX TMP DP RH WIND PRES REMARKS Thomson FAIR 55 52 88 N3 29.92F Augusta-Bush FAIR 59 53 80 W5 29.86S 6HR MIN TEMP: 58; 6HR MAX TEMP: 70; Augusta-Daniel FAIR 61 52 72 W6 29.87S Swainsboro FAIR 54 54 100 NW3 29.89S Vidalia FAIR 61 52 72 W5 29.89S Eastman FAIR 60 49 67 CALM 29.92F Hazlehurst FAIR 59 53 82 CALM 29.89S Alma FAIR 56 53 90 CALM 29.89F 6HR MIN TEMP: 55; 6HR MAX TEMP: 73; Waycross FAIR 58 55 91 NW3 29.89F Jesup FAIR 59 54 82 CALM 29.89S Baxley FAIR 55 55 100 CALM 29.89F Brunswick FAIR 57 54 88 W3 29.89F Saint Simons FAIR 64 55 72 W3 29.88F 6HR MIN TEMP: 64; 6HR MAX TEMP: 76; $$ SCZ027-028-034-036>038-045-046-048>050-GAZ119-141-260700- ...Lake and Supplemental Coastal Observations... STATION/POSITION TIME TEMP WIND PRES WAVE SWELL AIR SEA DIR/SP/G HT/PER HT/PER/DIR (UTC) (F) (DEG/KT/KT) (MB) (FT/S) (FT/S/D) Winyah Bay 0545 61 CALM 1010.0S Lake Murray 0520 62 300/ 2/ 3 1010.2 ACE Basin NERRS 0545 60 CALM N/A Fort Pulaski 0600 65 67 270/ 6/ 8 1011.4 Sapelo Island 0600 64 300/ 2 1012.0 $$ ANZ835-935-AMZ111-154-330-350-352-354-370-450-454-472-260700- ...C-MAN and Buoy Observations... STATION/POSITION TIME TEMP WIND PRES WAVE SWELL AIR SEA DIR/SP/G HT/PER HT/PER/DIR (UTC) (F) (DEG/KT/KT) (MB) (FT/S) (FT/S/D) Buoy 41004 0610 69 260/ 12/ 14 1010.1 Buoy 41008 0550 68 66 300/ 8/ 10 1011.3F 3/ 8 3/ 80/ 8 Folly Beach CMAN 0600 63 260/ 3/ 4 1011.0F Capers Nearshore 0608 67 65 270/ 8/ 10 1010.7F Fripp Nearshore 0608 66 65 260/ 10/ 12 1010.5F STATION/POSITION TIME TEMP WIND PRES WAVE SWELL AIR SEA DIR/SP/G HT/PER HT/PER/DIR (UTC) (F) (DEG/KT/KT) (MB) (FT/S) (FT/S/D) 5E St. Marys GA 0600 69 N/A 2/ 8 Frying Pan Buoy 0610 68 70 230/ 10/ 12 1009.6 Buoy 41025 0610 66 70 280/ 16/ 19 1008.5 Cape Lookout NC 0600 250/ 5/ 5 1009.5F Buoy 41002 0610 72 73 260/ 14/ 17 1010.6 Buoy 41010 0610 74 77 160/ 10/ 12 1012.7 St Augustine FL 0600 65 67 270/ 7/ 9 1012.5F $$

USA.gov is the U.S. government's official web portal to all federal, state and local government web resources and services.